Volver al catálogo

STARLINK-33645

ActivoComunicacionesVLEO
NORAD 63412·PAYLOAD·🇺🇸 United States

Lanzado Mar 31, 2025 desde Cape Canaveral Space Force Station

Loading…

Próximos Pases (próximas 24 horas)

TLE

ActualizadoSource: CelesTrak SupGP

Época: Sep 14, 2026, 20:51 UTC

1 63412C 25065P   26257.86923611 -.00038422  00000+0 -13919-2 0  2574
2 63412  43.0001 121.9116 0001307 269.3081 120.5444 15.27592536    13

Sigue STARLINK-33645 en tiempo real con AllMySat

Download on the App Store